Date,TemperatureHighF,TemperatureAvgF,TemperatureLowF,DewpointHighF,DewpointAvgF,DewpointLowF,HumidityHigh,HumidityAvg,HumidityLow,PressureMaxIn,PressureMinIn,WindSpeedMaxMPH,WindSpeedAvgMPH,GustSpeedMaxMPH,PrecipitationSumIn
2013-1-1,59.4,40.0,25.3,36.9,29.1,23.1,97,71,26,29.97,29.82,8,2,11,0.01
2013-1-2,68.2,43.3,26.6,36.7,28.7,18.1,97,66,17,29.87,29.71,6,2,8,0.00
2013-1-3,55.2,34.4,27.5,36.3,29.5,25.8,95,85,39,29.83,29.75,6,1,6,0.00
2013-1-7,61.2,43.7,29.1,33.6,28.7,25.6,88,60,27,29.69,29.57,11,3,14,0.00
2013-1-8,68.5,45.9,28.0,34.0,27.8,22.4,90,55,18,29.85,29.65,8,2,9,0.02
2013-1-9,76.5,50.1,29.3,33.9,21.6,7.5,86,45,10,29.94,29.78,22,4,24,0.00
2013-1-10,73.0,54.4,36.3,38.1,23.1,14.3,63,34,12,29.81,29.56,15,4,21,0.00
2013-1-11,53.4,41.8,27.5,37.2,24.1,8.0,93,55,20,29.83,29.66,15,4,21,0.04
2013-1-12,52.7,34.5,20.7,23.3,13.9,0.1,83,50,12,29.84,29.73,10,2,11,0.00
2013-1-13,54.5,33.7,16.9,20.1,10.6,-3.3,82,47,10,29.85,29.73,7,2,12,0.00
2013-1-14,51.3,32.7,18.0,18.7,8.6,-1.7,79,43,12,29.95,29.79,15,3,16,0.00
2013-1-15,53.2,31.6,15.1,12.4,4.5,-8.1,71,39,10,30.08,29.94,5,2,7,0.00
2013-1-16,64.4,39.7,19.9,17.5,9.6,-2.0,66,36,10,30.08,29.93,6,2,10,0.00
2013-1-17,73.2,50.6,26.4,24.4,14.5,6.5,68,32,10,29.98,29.86,20,5,25,0.00
2013-1-18,82.4,55.9,37.4,24.7,19.1,9.9,49,28,10,29.97,29.83,7,1,11,0.00
2013-1-19,80.8,52.7,29.7,27.4,22.3,12.2,72,39,10,29.97,29.84,8,2,10,0.00
2013-1-20,84.0,55.6,34.5,31.7,25.8,19.6,72,40,10,29.91,29.76,6,2,7,0.00
2013-1-21,87.3,59.6,37.4,34.7,29.9,24.0,74,39,10,29.86,29.75,8,2,10,0.00
2013-1-22,88.5,59.6,38.1,37.4,31.4,20.2,78,43,10,29.93,29.82,6,2,8,0.00
2013-1-23,90.7,60.1,37.8,34.9,30.5,22.0,73,40,10,29.97,29.84,8,2,10,0.00
2013-1-24,65.7,58.6,51.6,55.3,45.2,33.8,87,63,36,30.00,29.91,8,2,9,0.06
2013-1-25,86.9,65.2,48.6,52.0,48.9,42.3,91,61,22,29.94,29.74,7,2,8,0.00
2013-1-26,73.8,62.2,54.0,60.4,54.2,48.5,96,77,42,29.76,29.67,16,3,18,0.51
2013-1-27,72.0,58.9,48.6,57.5,50.6,48.0,99,76,47,29.79,29.69,6,2,10,0.00
2013-1-28,60.4,51.6,44.2,50.0,41.6,31.8,87,69,53,29.77,29.68,14,6,17,0.05
2013-1-29,51.3,41.7,34.0,35.2,31.2,21.5,79,67,31,29.94,29.76,9,4,11,0.00
2013-1-30,64.6,44.7,28.8,34.6,25.1,12.8,89,55,14,30.07,29.93,8,2,10,0.00
2013-1-31,65.3,45.6,28.8,36.3,30.2,24.8,89,61,23,30.00,29.85,8,2,10,0.00
2013-2-1,78.3,51.7,29.5,37.5,29.5,15.6,93,55,10,29.96,29.86,8,2,8,0.00
2013-2-2,83.1,55.5,33.3,39.6,31.0,16.9,88,50,10,30.00,29.85,6,2,8,0.00
2013-2-3,80.4,60.1,48.6,42.2,37.0,24.8,72,47,13,29.89,29.72,6,2,8,0.00
2013-2-4,76.5,57.7,42.8,44.4,39.6,35.7,85,56,24,29.81,29.69,6,2,9,0.00
2013-2-5,81.0,58.3,38.8,45.1,40.2,34.6,92,57,19,29.79,29.67,8,2,10,0.00
2013-2-6,77.5,57.9,43.2,44.9,39.1,31.9,86,55,21,29.80,29.67,15,3,15,0.00
2013-2-7,77.9,56.3,38.8,43.1,35.2,22.9,87,52,13,29.87,29.72,8,2,11,0.00
2013-2-8,76.6,57.7,43.3,37.6,25.9,10.3,69,37,10,29.72,29.55,14,4,15,0.00
2013-2-9,58.5,46.6,34.3,38.7,30.0,21.6,92,56,25,29.78,29.57,14,4,15,0.07
2013-2-10,64.0,45.2,28.8,33.8,24.7,14.6,89,53,15,29.80,29.67,7,2,10,0.00
2013-2-11,58.1,39.3,27.3,37.4,30.7,22.8,94,74,30,29.91,29.72,12,3,14,0.15
2013-2-12,59.9,43.1,28.6,39.4,31.9,27.6,97,69,33,30.00,29.89,9,2,11,0.01
2013-2-13,66.9,45.7,26.4,35.8,26.2,11.7,93,56,12,29.94,29.81,8,2,10,0.00
2013-2-14,71.2,49.8,28.8,32.9,27.2,19.9,90,50,15,29.89,29.77,11,3,11,0.00
2013-2-15,78.3,53.8,35.8,39.3,27.3,15.4,82,45,10,29.99,29.88,8,2,9,0.00
2013-2-16,79.5,56.7,33.1,28.6,17.5,2.8,71,31,10,30.00,29.76,21,6,31,0.00
2013-2-17,79.2,57.4,38.1,24.7,17.1,5.0,50,25,10,29.76,29.61,12,3,14,0.00
2013-2-18,78.1,55.1,34.9,27.3,20.4,8.9,63,32,10,29.82,29.67,8,2,11,0.00
2013-2-19,77.5,59.3,41.7,31.9,18.4,3.1,51,26,10,29.70,29.48,16,5,21,0.00
2013-2-20,53.4,42.8,33.1,40.2,34.5,30.4,97,75,42,29.71,29.49,15,4,19,0.32
2013-2-21,63.0,45.0,32.5,42.6,34.8,31.3,97,71,33,29.79,29.68,8,2,10,0.26
2013-2-22,61.2,47.1,35.6,42.6,33.6,26.9,93,63,30,29.89,29.73,8,3,14,0.00
2013-2-23,71.8,49.1,28.4,35.4,27.6,11.8,92,54,10,29.89,29.60,8,2,9,0.00
2013-2-24,55.2,44.2,34.2,33.9,18.8,-3.1,86,46,10,29.83,29.57,21,6,21,0.00
2013-2-25,66.6,45.6,27.0,25.2,18.1,9.2,73,40,11,29.95,29.78,8,3,11,0.00
2013-2-26,67.3,47.8,27.3,30.2,19.4,5.2,85,43,10,29.83,29.70,14,3,15,0.00
2013-2-27,71.8,49.3,28.8,28.5,14.9,0.9,76,34,10,29.94,29.82,11,3,13,0.00
2013-2-28,73.2,51.2,26.8,25.4,14.9,4.9,69,30,10,30.04,29.93,11,3,11,0.00
2013-3-1,84.9,55.7,30.7,29.5,21.0,8.8,66,33,10,30.07,29.92,6,2,7,0.00
2013-3-2,91.4,62.3,34.0,33.1,27.0,16.2,75,35,10,30.05,29.84,8,2,10,0.00
2013-3-3,87.1,60.3,42.1,33.5,27.8,18.9,63,37,10,29.88,29.73,8,3,10,0.00
2013-3-4,77.4,64.8,49.1,33.8,26.9,11.3,54,27,10,29.83,29.65,16,4,16,0.00
2013-3-5,88.0,63.0,40.3,37.5,28.3,15.2,74,35,10,29.87,29.73,14,3,14,0.00
2013-3-6,88.0,67.7,51.6,39.6,30.1,18.1,57,30,10,29.80,29.64,11,3,11,0.00
2013-3-7,87.3,65.8,44.8,36.7,26.5,12.1,63,29,10,29.74,29.63,15,4,15,0.00
2013-3-8,73.8,59.9,43.5,48.0,37.4,29.6,69,44,27,29.74,29.55,27,6,27,0.00
2013-3-9,60.8,49.9,42.4,41.1,37.2,33.4,83,62,42,29.83,29.73,13,3,14,0.00
2013-3-10,70.3,55.7,40.5,42.7,34.9,21.3,84,51,16,29.90,29.80,14,4,16,0.00
2013-3-11,79.2,57.9,35.6,39.4,30.2,18.9,80,43,11,29.92,29.76,9,3,14,0.00
2013-3-12,88.5,62.5,36.9,38.8,31.5,19.6,78,40,10,29.85,29.73,8,2,9,0.00
2013-3-13,97.2,70.2,42.8,38.9,31.2,20.2,73,32,10,29.90,29.76,8,3,9,0.00
2013-3-14,100.8,71.9,44.2,37.2,29.6,18.9,63,28,10,29.90,29.75,17,3,17,0.00
2013-3-15,99.3,73.7,48.2,33.3,27.3,16.0,50,22,10,29.82,29.66,15,3,17,0.00
2013-3-16,94.6,73.7,48.7,31.9,26.2,13.2,48,21,10,29.71,29.50,14,4,14,0.00
2013-3-17,87.8,69.3,50.9,28.3,21.6,11.2,37,19,10,29.70,29.58,18,4,18,0.00
2013-3-18,89.6,69.0,48.7,33.6,25.8,14.5,50,23,10,29.77,29.66,14,4,17,0.00
2013-3-19,85.3,66.9,50.2,36.2,27.2,17.3,48,26,10,29.81,29.70,11,3,13,0.00
2013-3-20,89.1,68.8,48.9,35.2,28.2,16.9,54,27,10,29.82,29.64,10,3,13,0.00
2013-3-21,82.6,67.7,52.5,36.5,30.2,22.8,50,28,11,29.65,29.50,9,3,10,0.00
2013-3-22,86.2,70.4,51.3,37.2,29.0,17.4,54,25,10,29.59,29.46,14,4,18,0.00
2013-3-23,78.8,64.1,47.5,36.8,22.4,1.4,51,25,10,29.75,29.59,14,4,18,0.00
2013-3-24,81.5,61.3,40.1,19.7,14.1,-0.2,40,18,10,29.79,29.63,11,3,12,0.00
2013-3-25,89.8,65.9,40.3,26.0,16.5,7.9,41,17,10,29.78,29.65,8,2,17,0.00
2013-3-26,94.3,70.6,50.4,29.4,19.8,7.0,32,16,10,29.76,29.59,10,3,12,0.00
2013-3-27,93.0,72.0,51.6,28.5,20.0,7.2,32,16,10,29.77,29.65,13,5,14,0.00
2013-3-28,92.5,73.2,49.6,28.1,20.4,10.1,36,15,10,29.82,29.71,8,4,12,0.00
2013-3-29,93.4,74.8,52.3,28.8,22.0,9.4,38,16,10,29.86,29.74,10,3,10,0.00
2013-3-30,91.8,72.2,55.6,30.1,22.3,14.1,33,17,10,29.84,29.69,10,3,13,0.00
2013-3-31,93.2,70.4,47.5,33.9,25.5,13.5,53,23,10,29.82,29.66,8,2,11,0.00
2013-4-1,89.6,72.0,49.1,33.7,24.8,10.1,47,20,10,29.79,29.64,11,3,16,0.00
2013-4-2,82.9,65.5,46.6,29.9,22.2,12.1,45,23,10,29.75,29.63,12,3,14,0.00
2013-4-3,90.0,69.3,46.4,29.2,24.2,16.0,46,22,10,29.81,29.70,8,3,12,0.00
2013-4-4,98.6,75.5,49.5,32.7,26.5,14.1,47,20,10,29.85,29.67,17,3,17,0.00
2013-4-5,94.8,75.2,54.3,34.5,26.4,18.5,42,19,10,29.76,29.62,11,3,14,0.00
2013-4-6,93.2,74.3,53.1,34.8,27.1,19.1,41,20,10,29.77,29.59,11,3,13,0.00
2013-4-7,93.9,73.5,53.2,40.0,30.5,16.9,54,25,10,29.68,29.52,10,3,12,0.00
2013-4-8,87.8,72.4,46.9,44.9,31.1,20.2,90,26,10,29.55,29.20,27,10,30,0.13
2013-4-9,71.6,57.9,46.6,46.4,33.0,15.6,94,47,12,29.66,29.41,15,5,19,0.04
2013-4-10,74.7,59.0,40.6,37.7,28.5,12.7,73,38,10,29.76,29.65,11,3,18,0.00
2013-4-11,86.2,65.0,43.2,36.8,27.8,13.2,68,32,10,29.76,29.54,11,3,14,0.00
2013-4-12,86.2,65.6,48.9,36.1,27.2,15.6,51,28,10,29.61,29.51,9,2,16,0.00
2013-4-13,93.6,73.6,47.1,33.9,25.6,13.6,57,21,10,29.65,29.50,14,4,14,0.00
2013-4-14,91.4,73.1,53.4,36.4,29.2,18.0,44,23,10,29.60,29.46,15,5,21,0.00
2013-4-15,91.9,76.8,60.3,39.3,29.6,18.8,39,20,10,29.60,29.47,18,6,21,0.00
2013-4-16,90.1,75.3,59.2,40.4,28.9,19.5,41,21,10,29.61,29.49,18,7,25,0.00
2013-4-17,75.4,63.1,50.7,41.1,20.8,1.0,51,23,10,29.77,29.57,17,6,24,0.00
2013-4-18,78.4,60.8,39.9,18.8,12.4,2.7,39,17,10,29.88,29.76,17,4,18,0.00
2013-4-19,77.5,50.8,36.5,22.6,17.2,8.3,51,31,10,29.91,29.87,5,2,7,0.00
2013-4-29,105.4,84.1,57.2,37.8,25.4,12.0,26,12,10,29.64,29.46,14,4,14,0.00
2013-4-30,104.5,80.3,55.6,37.1,27.2,12.2,37,16,10,29.61,29.48,18,4,18,0.00
2013-5-1,98.2,76.8,56.8,33.0,25.3,13.6,33,16,10,29.77,29.60,11,3,11,0.00
2013-5-2,97.7,76.4,53.4,33.1,24.4,13.0,41,17,10,29.88,29.74,27,7,27,0.00
2013-5-3,94.3,76.2,63.5,29.4,16.9,8.9,16,11,10,29.83,29.57,34,12,34,0.01
2013-5-4,99.7,79.9,54.3,33.4,24.7,13.7,36,15,10,29.63,29.48,15,5,15,0.00
2013-5-5,96.4,82.2,65.5,46.1,24.9,13.9,47,13,10,29.73,29.55,17,6,20,0.00
2013-5-6,93.9,75.8,59.4,53.1,38.6,21.9,73,32,10,29.75,29.65,16,6,20,0.02
2013-5-7,91.0,74.6,56.5,45.0,34.3,14.9,52,27,10,29.78,29.63,15,5,18,0.00
2013-5-8,91.4,73.1,54.5,44.4,36.0,23.4,57,30,10,29.81,29.67,10,3,13,0.00
2013-5-9,93.7,75.9,54.3,45.1,32.8,20.0,58,25,10,29.77,29.64,11,3,12,0.00
2013-5-10,99.1,75.6,54.9,43.4,33.2,22.8,50,24,10,29.83,29.68,24,4,27,0.00
2013-5-11,90.3,76.3,55.4,39.3,31.2,20.3,54,23,10,29.86,29.76,29,10,36,0.00
2013-5-12,96.1,80.8,62.6,38.3,29.8,20.3,36,17,10,29.91,29.72,24,9,31,0.00
2013-5-13,99.9,83.0,63.0,34.8,27.0,13.8,32,14,10,29.84,29.68,25,7,27,0.00
2013-5-14,105.1,87.8,67.8,42.7,30.9,13.4,36,14,10,29.77,29.61,11,3,14,0.00
2013-5-15,103.5,85.2,63.7,40.4,31.7,20.8,37,17,10,29.78,29.61,14,5,17,0.00
2013-5-16,106.0,86.2,62.2,38.3,31.2,18.5,34,16,10,29.72,29.55,13,4,18,0.00
2013-5-17,103.1,84.1,62.8,36.1,29.3,18.8,33,15,10,29.69,29.58,14,5,15,0.00
2013-5-18,98.4,80.4,62.1,36.9,30.4,24.0,35,19,10,29.73,29.62,14,3,17,0.00
2013-6-6,111.9,89.3,62.6,42.6,31.9,22.1,30,14,10,29.64,29.50,13,3,13,0.00
2013-6-7,115.5,89.9,65.8,45.3,32.8,23.2,32,15,10,29.62,29.44,8,3,8,0.00
2013-6-8,111.2,93.8,68.7,42.1,32.3,19.8,26,12,10,29.65,29.55,13,4,13,0.00
2013-6-9,110.8,92.3,68.7,42.1,33.5,21.6,33,14,10,29.70,29.58,14,4,14,0.00
2013-6-10,115.3,93.7,66.6,45.2,33.9,18.0,30,13,10,29.71,29.56,12,4,12,0.00
2013-6-11,114.1,95.7,68.2,44.3,34.1,18.1,29,12,10,29.70,29.58,14,4,14,0.00
2013-6-12,113.5,93.1,70.9,44.0,32.0,20.2,24,12,10,29.74,29.59,12,4,15,0.00
2013-6-13,109.8,94.4,74.5,48.9,38.6,27.1,33,16,10,29.73,29.57,14,5,15,0.00
2013-6-14,109.0,94.4,76.1,56.2,44.6,30.1,45,21,10,29.69,29.52,13,4,17,0.00
2013-6-15,108.9,92.7,75.7,62.7,49.8,35.4,45,25,10,29.71,29.58,16,4,28,0.01
2013-6-16,115.0,93.8,71.4,61.6,44.6,22.2,66,25,10,29.73,29.59,14,4,14,0.00
2013-6-17,115.3,93.1,65.8,45.3,34.3,20.2,34,14,10,29.74,29.58,17,3,17,0.00
2013-6-18,115.7,92.2,64.9,45.6,32.2,12.2,31,13,10,29.67,29.53,17,3,17,0.00
2013-6-19,112.1,91.0,65.5,42.9,28.5,11.1,18,11,10,29.61,29.47,19,4,19,0.00
2013-6-20,112.8,91.7,67.1,43.4,33.6,21.7,31,14,10,29.65,29.52,14,4,19,0.00
2013-6-21,111.9,92.2,69.4,42.7,32.2,17.1,25,13,10,29.68,29.55,15,4,15,0.00
2013-6-22,114.4,92.0,66.7,44.6,34.0,18.4,32,14,10,29.68,29.52,13,4,14,0.00
2013-6-23,108.9,91.2,67.8,40.4,32.6,22.7,28,13,10,29.65,29.49,17,5,21,0.00
2013-6-24,107.8,90.8,67.5,39.6,32.7,24.0,27,14,10,29.67,29.55,18,5,23,0.00
2013-6-25,113.5,91.0,67.3,44.0,33.9,15.9,34,15,10,29.74,29.62,10,3,12,0.00
2013-6-26,110.8,90.4,65.7,41.9,31.1,18.4,27,13,10,29.81,29.68,11,3,11,0.00
2013-6-27,109.6,91.5,68.5,41.0,33.0,22.9,26,14,10,29.85,29.67,15,5,20,0.00
2013-6-28,115.2,90.2,70.0,45.2,36.9,28.5,31,17,10,29.74,29.65,10,3,11,0.00
2013-7-1,88.0,83.8,76.3,72.5,65.3,59.1,78,55,38,29.68,29.59,10,4,13,0.22
2013-7-2,108.9,92.2,70.3,67.9,56.9,43.7,78,35,12,29.85,29.62,35,7,40,0.05
2013-7-3,113.0,96.3,76.3,58.5,47.8,37.4,51,23,10,29.71,29.49,11,5,22,0.00
2013-7-4,110.7,97.5,83.5,60.9,50.8,38.5,45,23,10,29.66,29.49,12,4,17,0.00
2013-7-5,108.9,88.4,75.9,70.8,62.6,54.3,81,47,18,29.69,29.53,14,5,21,0.02
2013-7-6,114.3,90.8,71.2,69.0,61.1,47.0,78,44,11,29.63,29.47,11,3,12,0.00
2013-7-7,114.6,94.0,76.6,66.9,58.1,42.6,64,35,10,29.62,29.50,21,4,24,0.00
2013-7-8,118.0,96.6,83.5,63.0,55.4,43.3,47,28,10,29.71,29.59,21,4,24,0.00
2013-7-9,104.2,91.8,79.0,70.8,64.9,58.8,76,44,23,29.82,29.65,14,6,18,0.02
2013-7-10,105.4,88.9,73.8,71.7,67.7,61.1,83,54,24,29.81,29.64,13,4,15,0.05
2013-7-12,102.9,90.6,80.4,70.2,64.1,60.1,58,42,25,29.74,29.62,9,5,12,0.05
2013-7-13,106.9,91.8,75.6,70.1,62.2,51.3,77,42,16,29.75,29.60,13,4,17,0.00